Timeline UpdatesTrip UpdatesNews PostsPvt PostsTravel TipsAdmin PostsConv PostsFollowed PostsChat RequestsBlog PostsPNR Posts

Disclaimer
Search
 
 
Sun Aug 31, 2014 13:47:07 ISTHomeTrainsΣChainsAtlasPNRForumGalleryNewsFAQTripsMembersLoginFeedback
No Recent News for this Train
Other Trains in the News **new
Latest...
.
Thu Jul 24, 2014 (11:10PM)
⇐ Return Journey: Train# 19019

19020/Dehradun - Mumbai Bandra Terminus Express

Apr 15 2014 (1:35PM)
Change Departure Station:
Change Arrival Station:
Post a Train Travel TipPost a Train Travel Tip **new
Post a Comment/Question/Picture/VideoPost a Comment/Question/Picture/Video
Pantry/Catering
✕ NO Pantry Car
✓ Catering Avbl
Loco/Rake Reversals
SRE/Saharanpur Junction (6); LRJ/Laksar Junction (4);
RSA - Rake Sharing
Rake/Coach Composition
LOCO-SLR-HCPV-GEN-GEN-AB1-S1-S2-S3-S4-S5-S6-S7-S8-S9-SLR
Loco
GZB WAP-7 NZM-BDTS. ddn to nzm tkd wdp 3a. By Er...
Read more...
Ankit Shotra Bhagat Entry# 595554
News    PNR    Forum    Time-Table    Availability    Fare Chart    Map    Arr/Dep History    Trips    Gallery    ΣChains    X/O    Timeline    
Travel Time: 2h 30m    -88 halts    Distance: 121 km    Avg Speed: 48 km/hr
Type: Mail/Express
Zone: WR/Western
Departs @ 00:38 (Avg 19m late)
Platform# ???
SMTWTFS
Vapi/VAPI 
Arrives @ 03:08 (Avg 14m late)
Platform# ???
SMTWTFS
Vasai Road/BSR 

-88 halts. 16 intermediate Stations between Vapi and Vasai Road

Show ALL intermediate Stations  Show Old Time-Table

#CodeStation NameX/OArrivesAvgDepartsAvgHaltPFDay#KmSpeedElevZoneAddress
1DDNDehradun (4)  -10:35+021-1524.941648mNRDehradun, Uttarakhand
2DWODoiwala  11:04+411:06+42m--1-1505.139484mNRDehradun, Uttarakhand
3RWLRaiwala Junction (2)X  11:38+311:40+172m21-1484.320361mNRRishikesh, Uttarakhand
4MOTCMotichur (2)X  12:00+812:02+102m11-1477.821312mNRHaridwar, Uttarakhand
5HWHaridwar Junction (9)X  12:15+1112:45+1230m31-1473.230294mNRHaridwar, Uttarakhand
6JWPJwalapur  12:53+1312:55+132m--1-1469.221292mNRHaridwar, Uttarakhand
7LRJLaksar Junction (4)X14:00+814:25+725m--1-1446.359238mNRLaksar, Uttarakhand
8RKRoorkee (3)X  14:43+914:45+122m31-1428.542264mNRRoorkee - 247667, Uttarakhand
9SRESaharanpur Junction (6)X15:35+916:05+230m41-1393.846276mNRSaharanpur, Uttar Pradesh
10DBDDeoband (2)  16:50+716:52+82m21-1359.651258mNRSaharanpur, Uttar Pradesh
11MOZMuzaffarnagar (3)X  17:20+517:22+212m21-1335.667247mNRMuzaffarNagar, Uttar Pradesh
12KATKhatauli (2)  17:42+2317:44+232m11-1313.473239mNRKhatauli, Uttar Pradesh
13MUTMeerut Cantt. (2)  18:08+2718:10+272m11-1284.310230mNRMeerut, Uttar Pradesh
14MTCMeerut City Junction (6)X18:35+1219:20+745m41-1279.983229mNRMeerut, Uttar Pradesh
15MDNRModinagar (2)X  19:34+1319:36+132m21-1260.567221mNRGhaziabad, Uttar Pradesh
16MUDMuradnagar (2)  19:45+1419:47+142m21-1250.447220mNRGhaziabad, Uttar Pradesh
17GZNNew Ghaziabad (2)X  20:02+720:04+72m21-1238.714213mNRGhaziabad, Uttar Pradesh
18GZBGhaziabad Junction (6)X  20:30+420:32+52m41-1232.745217mNRGhaziabad, Uttar Pradesh
19SBBSahibabad Junction (5)X  20:41+1220:43+112m--1-1226.030209mNRGhaziabad, Uttar Pradesh
20NZMDelhi Hazrat Nizamuddin (7)O21:15+1221:55+940m11-1210.025209mNRNew Delhi 110013, Delhi NCT
21TKDTuglakabad (4)XO  22:18+922:20+132m--1-1200.328213mNRNear Tughlakabad Metro Station, Delhi NCT
22FDBFaridabad (4)  22:44+622:46+82m31-1189.240206mNRold Faridabad, Haryana
23BVHBallabgarh (5)O  22:58+1023:00+102m--1-1181.135203mNRFaridabad, Haryana
24PWLPalwal (8)X  23:36+123:38+42m--1-1159.985200mNRPalwal, Haryana
25KSVKosi Kalan (3)O  00:08+1600:10+162m22-1117.529189mNCRKosi Kalan, Uttar Pradesh
26MTJMathura Junction (10)X  01:35-101:45+110m32-1076.080179mNCRMathura, Uttar Pradesh
27BTEBharatpur Junction (5)  02:10+702:15+75m--2-1042.584174mWCRBharatpur, Rajasthan
28BXNBayana Junction (3)XO  02:45+702:47+102m--2-1000.574198mWCRBayana, Rajasthan
29FSPFateh SinghpuraO  03:03+1003:05+112m--2-980.879223mWCRState Highway 1, Rajasthan
30HANHindaun City (2)  03:15+1403:17+152m--2-967.668230mWCRKarauli, Rajasthan
31SMBJShri Mahabirji (3)O  03:26+1703:28+172m--2-957.549240mWCRKarauli, Rajasthan
32GGCGangapur City (3)  04:10+304:20+610m--2-923.464270mWCRGangapur, Rajasthan
33NNWNarayanpur Tatwara (2)X  04:36+704:38+72m--2-906.484256mWCRSawai Madhopur, Rajasthan
34MLZMalarnaX  04:50+904:52+92m--2-889.665236mWCRSawai Madhopur, Rajasthan
35SWMSawai Madhopur Junction (4)XO  05:20+705:25+75m--2-859.595266mWCRSawai Madhopur, Rajasthan
36IDGIndargarh Sumerganj Mandi (2)X  05:48+1305:50+152m--2-823.282247mWCRIndargarh, Rajasthan
37LKELakheri (3)  05:58+1806:00+182m--2-812.274228mWCRBundi, Rajasthan
38KPTNKeshorai PatanX  06:38+1906:40+222m--2-765.160243mWCRSH 33, Rajasthan
39GQLGurla  06:48+2706:50+302m--2-757.28251mWCRSH 33, Rajasthan
40KOTAKota Junction (5)X07:30+707:50+1220m22-751.851256mWCRKota, Rajasthan
41DKNTDakaniya Talav (2)  08:01+1708:03+192m22-742.485278mWCRKota, Rajasthan
42DARADaraX  08:30+2208:32+222m--2-704.355354mWCRDara, Rajasthan
43MKXMorak (2)X  08:48+2208:50+232m--2-689.642337mWCRMorak, Rajasthan
44RMARamganj Mandi Junction (3)  09:03+2009:05+232m--2-680.557358mWCRRamganj Mandi, Rajasthan
45JHWJhalawar Road (3)  09:18+2209:20+232m--2-668.155361mWCRJhalawar City, Rajasthan
46BWMBhawani Mandi (3)X  09:38+2009:40+292m--2-651.776384mWCRBhawani Mandi, Madhya Pradesh
47GOHGaroth (2)X  09:58+3010:00+312m12-629.026441mWCRMadhya Pradesh 458880, Madhya Pradesh
48SGZShamgarh (3)X  10:25+1810:30+245m--2-618.267463mWCRMandsaur, Madhya Pradesh
49SVASuwasra (2)  10:42+2610:44+262m--2-604.766450mWCRSuwasra, Madhya Pradesh
50CMUChau Mahla (3)  10:58+2711:00+302m12-589.435426mWCRJhalawar, Rajasthan
51THURThuriaX  11:24+1711:26+182m--2-575.221430mWCRMDR 45, Madhya Pradesh
52VMAVikramgarh Alot (2)X  11:48+811:50+122m12-567.561443mWCRKota Division, Madhya Pradesh
53LNRLuni Richha  12:03+1012:05+112m--2-554.328471mWCRAlote, Madhya Pradesh
54MEPMahidpur Road  12:28+112:30+52m--2-543.729493mWCRGogapur, Madhya Pradesh
55NADNagda Junction (4)  13:05+213:15+410m--2-526.675468mWRNagda, Madhya Pradesh
56KUHKhachrod (2)  13:26+913:28+102m--2-512.857497mWRUjjain, Madhya Pradesh
57RNHRunkheraX  13:39+813:41+72m--2-502.363478mWRUjjain, Madhya Pradesh
58BODBangrodX  13:48+713:50+72m--2-495.024484mWRRatlam, Madhya Pradesh
59RTMRatlam Junction (7)X  14:15+414:35+720m42-485.277495mWRRatlam, Madhya Pradesh
60RTIRaoti (2)  14:56+1314:58+122m--2-458.271409mWRState Highway 39A, Madhya Pradesh
61BOGBhairongarh (2)  15:08+1515:10+142m--2-446.451374mWRBhairongarh Railway Station, Madhya Pradesh
62BMIBamnia (2)  15:17+1515:19+152m--2-440.442392mWRBamnia, Madhya Pradesh
63AGRAmargarh (2)  15:25+1515:27+142m--2-436.257410mWRSH 39A, Madhya Pradesh
64PCNPanch Pipila (2)  15:37+1415:39+142m--2-426.884369mWRSH 39A, Madhya Pradesh
65THDRThandla Road (2)  15:49+1715:51+172m--2-412.860317mWRJhabua, Madhya Pradesh
66MGNMeghnagar (3)  15:59+1816:01+192m--2-404.973317mWRJhabua, Madhya Pradesh
67ANASAnas (2)  16:13+1916:15+192m--2-390.379288mWRMadhya Pradesh 389154 ?, Madhya Pradesh
68BIOBordi (2)  16:21+2016:23+192m--2-382.353289mWRNational Highway 59, Gujarat
69DHDDahod (3)  16:35+2316:40+245m--2-371.776313mWRDahod, Gujarat
70LMKLimkheda  17:06+3017:08+302m--2-338.868205mWRLimkheda, Gujarat
71PPDPiplod Junction  17:15+3017:17+292m--2-330.879209mWRPiplod, Gujarat
72SATSant Road (2)X  17:26+3117:28+302m22-319.020169mWROrwara, Gujarat
73GDAGodhra Junction (3)X  18:30+218:35+65m102-298.665122mWRGodhra, Gujarat
74KRSAKharsaliya (2)  18:45+1018:47+102m--2-287.885107mWRPanchmahal, Gujarat
75DRLDerolX  18:56+1118:58+112m12-275.16881mWRKalol, Gujarat
76CPNChampaner Road JunctionX  19:09+1219:11+112m--2-262.67578mWRPanchmahal, Gujarat
77SMLASamlaya Junction (3)X  19:20+1119:22+112m--2-251.44867mWRVadodara, Gujarat
78BRCVadodara Junction (7)  19:55+1820:05+1810m32-224.78936mWRVadodara 390005, Gujarat
79MYGMiyagam Karjan (2)  20:25+2520:27+242m--2-194.97229mWRKarjan, Gujarat
80BHBharuch Junction (5)  21:01+1921:03+192m42-154.26219mWRBharuch, Gujarat
81AKVAnkleshwar Junction (4)X  21:12+1921:14+202m22-144.97419mWRAnkleshwar, Gujarat
82KSBKosamba Junction (3)X21:29+2521:31+222m--2-126.33230mWRKosamba, Gujarat
83STSurat (4)X  22:30+1122:38+118m22-94.97119mWRSurat 395001, Gujarat
84NVSNavsari (3)  23:03+1923:05+192m--2-65.37914mWRNavsari, Gujarat
85BIMBilimora Junction (4)X  23:21+2523:23+252m--2-44.23611mWRBilimora, Gujarat
86BLValsad (3)  23:53+1923:55+252m32-26.23815mWRValsad, Gujarat
87VAPIVapi (3)X  00:36+1700:38+192m--30.05727mWRVapi, Gujarat
88PLGPalghar (3)  02:04+1902:06+222m--381.53719mWRPalghar, Maharashtra
89VRVirar (8)  02:56+902:58+112m--3112.7486mWRDist. Palghar, Maharashtra
90BVIMumbai Borivali (8)  03:30+703:32+92m53138.52319mWRMumbai - 400092, Maharashtra
91BDTSMumbai Bandra Terminus (5)  04:20+2-13157.2-4mWRMumbai 400050, Maharashtra
Scroll to Top
Scroll to Bottom